FW1728 Weather Reports


time (UTC)temp
C
wind
direction
speed
KPH
gust
KPH
rain 1hr
cm
rain 24hr
cm
rain mn
cm
humidity
%
barometer
mb
20260504081600 10 0 0.0 3.2 0.00 0.00 0.00 92 1017.0
20260504044540 12 0 0.0 3.2 0.00 0.00 0.00 90 1018.1
20260504043039 12 0 0.0 1.6 0.00 0.00 0.00 90 1018.3
20260504041540 12 265 0.0 1.6 0.00 0.00 0.00 90 1018.4
20260504040040 13 0 0.0 6.4 0.00 0.00 0.00 88 1018.3
20260504034541 13 0 0.0 1.6 0.00 0.00 0.00 88 1018.3
20260504033037 13 0 0.0 3.2 0.00 0.00 0.00 87 1018.4
20260504031536 14 0 0.0 1.6 0.00 0.00 0.00 86 1018.5
20260504030043 14 310 1.6 3.2 0.00 0.00 0.00 85 1018.4
20260504024539 15 0 0.0 1.6 0.00 0.00 0.00 84 1018.4
20260504023037 15 327 0.0 1.6 0.00 0.00 0.00 82 1018.3
20260504021537 15 0 0.0 1.6 0.00 0.00 0.00 80 1018.2
20260504020040 16 0 0.0 3.2 0.00 0.00 0.00 79 1017.9
20260504014558 16 0 0.0 4.8 0.00 0.00 0.00 76 1017.5
20260504013045 17 0 0.0 1.6 0.00 0.00 0.00 71 1017.3
20260504011540 18 340 0.0 1.6 0.00 0.00 0.00 68 1017.1
20260504010038 19 0 0.0 1.6 0.00 0.00 0.00 63 1017.1
20260504004537 20 340 0.0 1.6 0.00 0.00 0.00 60 1017.0
20260504003049 21 0 0.0 1.6 0.00 0.00 0.00 53 1017.0
20260504001544 22 0 0.0 3.2 0.00 0.00 0.00 44 1016.9
20260504000046 23 344 1.6 4.8 0.00 0.00 0.00 41 1017.1
20260503234547 23 336 0.0 6.4 0.00 0.00 0.00 42 1017.1
20260503233045 23 5 1.6 8.0 0.00 0.00 0.00 39 1017.1
20260503231537 23 11 4.8 8.0 0.00 0.00 0.00 37 1017.2
20260503230042 24 302 3.2 6.4 0.00 0.00 0.00 35 1017.2
20260503224537 24 335 3.2 9.7 0.00 0.00 0.00 35 1017.1
20260503223041 25 9 3.2 12.9 0.00 0.00 0.00 34 1017.2
20260503221538 24 286 1.6 12.9 0.00 0.00 0.00 35 1017.2
20260503220046 25 349 3.2 12.9 0.00 0.00 0.00 36 1017.4
20260503214538 25 272 3.2 14.5 0.00 0.00 0.00 35 1017.5
20260503213035 25 13 4.8 14.5 0.00 0.00 0.00 36 1017.7
20260503211537 25 9 3.2 14.5 0.00 0.00 0.00 35 1017.8
20260503210040 24 317 4.8 17.7 0.00 0.00 0.00 37 1018.0
20260503204539 24 250 3.2 14.5 0.00 0.00 0.00 36 1018.1
20260503203038 24 306 8.0 16.1 0.00 0.00 0.00 34 1018.5
20260503201536 24 24 8.0 20.9 0.00 0.00 0.00 34 1018.8
20260503200037 24 275 4.8 14.5 0.00 0.00 0.00 38 1019.1
20260503194539 24 79 8.0 17.7 0.00 0.00 0.00 35 1019.4
20260503193047 23 23 3.2 17.7 0.00 0.00 0.00 38 1019.6
20260503191539 23 282 3.2 14.5 0.00 0.00 0.00 37 1019.8
20260503190037 23 329 8.0 16.1 0.00 0.00 0.00 41 1020.1
20260503184544 23 289 4.8 12.9 0.00 0.00 0.00 38 1020.2
20260503183052 22 267 6.4 17.7 0.00 0.00 0.00 39 1020.5
20260503181544 23 13 4.8 17.7 0.00 0.00 0.00 41 1020.6
20260503180037 22 40 9.7 24.1 0.00 0.00 0.00 36 1020.8
20260503174537 22 40 11.3 22.5 0.00 0.00 0.00 37 1020.9
20260503173037 22 15 4.8 19.3 0.00 0.00 0.00 39 1021.4
20260503171537 21 304 3.2 8.0 0.00 0.00 0.00 47 1021.6